Regional Weather Roundup
Issued by NWS

Home | Current Version | Previous Version | Text Only | Print | Product List | Glossary On
Versions: 1 2 3 4 5 6 7 8 9 10 11 12 13 14 15 16 17 18 19 20 21 22 23 24 25 26 27 28 29 30 31 32 33 34 35 36 37 38 39 40 41 42 43 44 45 46 47 48 49 50
000
ASUS44 KFWD 150915
RWRTX
NORTH TEXAS HOURLY WEATHER ROUNDUP
NATIONAL WEATHER SERVICE FORT WORTH TX
400 AM CDT MON SEP 15 2014

NOTE: "FAIR" INDICATES FEW OR NO CLOUDS BELOW 12,000 FEET WITH NO
SIGNIFICANT WEATHER AND/OR OBSTRUCTIONS TO VISIBILITY.

TXZ118-119-151000-
DALLAS/FORT WORTH METROPLEX

CITY           SKY/WX    TMP DP  RH WIND       PRES   REMARKS
DFW AIRPORT    CLOUDY    72  65  78 CALM      30.12F
DALLAS LOVE    CLOUDY    73  65  75 SE6       30.12F
FTW MEACHAM    CLOUDY    72  65  78 CALM      30.12S
DAL-EXECUTIVE  CLOUDY    72  65  78 E3        30.12F
FTW-ALLIANCE   CLOUDY    69  65  86 CALM      30.12S
FTW-NAS-JRB    CLOUDY    77  64  64 S3        30.17S
FTW-SPINKS     CLOUDY    69  65  88 CALM      30.14F
ARLINGTON      CLOUDY    71  65  81 CALM      30.13S
GRAND PRAIRIE  CLOUDY    71  64  78 CALM      30.14S
ADDISON        CLOUDY    73  65  75 SE6       30.14F
MESQUITE       CLOUDY    68  64  88 CALM      30.14R
LANCASTER      CLOUDY    68  60  74 CALM      30.13F
$$

TXZ091>094-102>105-117-120-121-131>134-151000-
NORTH CENTRAL TEXAS

CITY           SKY/WX    TMP DP  RH WIND       PRES   REMARKS
SHRMAN/DENISON CLOUDY    70  64  79 SE7       30.15S
GAINESVILLE    LGT RAIN  67  65  92 CALM      30.15S
BOWIE          CLOUDY    67  65  93 SE3       30.14F
BRIDGEPORT     LGT RAIN  68  65  90 CALM      30.16S
DECATUR        CLOUDY    69  64  83 SE5       30.15S
DENTON         RAIN      67  65  93 SW3       30.14R
MCKINNEY       CLOUDY    69  65  86 CALM      30.13F
GREENVILLE     CLOUDY    68  63  83 CALM      30.14S
ROCKWALL       MOCLDY    70  65  86 E6        30.13S
TERRELL        MOCLDY    71  66  84 CALM      30.14R
WAXAHACHIE     CLOUDY    69  63  81 CALM      30.14F
GRANBURY       CLOUDY    73  65  75 CALM      30.14F
$$

TXZ083>090-098>101-113>116-127>130-139>142-154-155-151000-
WESTERN NORTH TEXAS

CITY           SKY/WX    TMP DP  RH WIND       PRES   REMARKS
WICHITA FALLS  LGT RAIN  68  65  90 S12       30.11F
WF-KICKAPOO    LGT RAIN  69  65  89 S5        30.13F
VERNON         CLOUDY    70  67  88 S8        30.12F
ABILENE        CLOUDY    72  63  73 S5        30.15F
ABILENE-DYESS  CLOUDY    71  61  71 S8        30.14F
BRECKENRIDGE   CLOUDY    73  63  71 S5        30.13S
GRAHAM         CLOUDY    69  64  84 CALM      30.13S
MINERAL WELLS  LGT RAIN  69  64  84 E5        30.12F
STEPHENVILLE   CLOUDY    68  64  84 CALM      30.17S
COMANCHE         N/A     70  63  79 S3        30.15F
BROWNWOOD      LGT RAIN  72  64  78 SE7       30.15S
COLEMAN        LGT RAIN  71  64  78 S3        30.16S
BRADY          CLEAR     70  66  88 SE3       30.16S
$$

TXZ143>147-156>162-174-175-151000-
CENTRAL TEXAS

CITY           SKY/WX    TMP DP  RH WIND       PRES   REMARKS
WACO           CLOUDY    69  66  90 CALM      30.12F
WACO-MCGREGOR  CLOUDY    70  61  73 CALM      30.14S
HILLSBORO      CLOUDY    72  64  75 CALM      30.13F
CORSICANA      CLOUDY    71  67  87 CALM      30.13S
MEXIA          CLOUDY    70  66  86 CALM      30.11S
HEARNE           N/A     69  68  97 CALM      30.11S FOG
CAMERON        CLOUDY    70  65  83 W3        30.11F
TEMPLE         CLOUDY    70  61  73 CALM      30.12F
KILLEEN        MOCLDY    72  64  78 CALM      30.13F
KILLEEN-SKYLRK CLOUDY    70  61  73 CALM      30.11F
FORT HOOD      CLOUDY    72  24  16 CALM      30.13F
GATESVILLE     CLOUDY    72  63  73 CALM      30.15F
HAMILTON       CLOUDY    69  63  81 SE3       30.16S
LAMPASAS       CLOUDY    71  67  89 CALM      30.14S
$$

TXZ095>097-106>112-122>126-135>138-148>153-164>167-151000-
EAST TEXAS

CITY           SKY/WX    TMP DP  RH WIND       PRES   REMARKS
PARIS          MOCLDY    66  59  77 E6        30.15F
SULPHUR SPRNGS CLOUDY    68  65  92 CALM      30.16S
MOUNT PLEASANT CLOUDY    67  66  94 CALM      30.15S
GILMER         CLOUDY    68  66  94 CALM      30.15S
MINEOLA        CLOUDY    66  66 100 CALM      30.14S
TYLER          CLOUDY    71  66  84 S3        30.13S
LONGVIEW       MOCLDY    69  65  86 CALM      30.12S
MARSHALL       MOCLDY    68  66  91 CALM      30.14S
ATHENS         CLOUDY    68  64  88 CALM      30.12R
PALESTINE      CLOUDY    71  68  90 E3        30.13S
JACKSONVILLE   CLOUDY    68  67  94 CALM      30.14S
HENDERSON      CLOUDY    68  67  96 CALM      30.13S
NACOGDOCHES    MOCLDY    66  64  94 CALM      30.12S
LUFKIN         PTCLDY    72  67  84 CALM      30.10S
$$

SUPPLEMENTAL OBSERVATIONS (CENTRAL)

CITY           SKY/WX    TMP DP  RH WIND       PRES   REMARKS
LAKE TEXOMA      N/A     66  61  82 SE3         N/A
CADDO GRASSLND   N/A     68  63  83 SE3         N/A
PAT MAYSE LAKE   N/A     68  64  88 E6          N/A
PALESTINE        N/A     68  66  94 CALM        N/A
LAKE LIMESTONE   N/A     72  68  88 N3          N/A
MCGREGOR         N/A     68  63  83 CALM        N/A
TEMPLE           N/A     72  63  73 W3          N/A
$$

SUPPLEMENTAL OBSERVATIONS (WEST)

CITY           SKY/WX    TMP DP  RH WIND       PRES   REMARKS
MILLERS CREEK    N/A     72  64  78 S6          N/A
POSSUM KINGDOM   N/A     70  63  78 SE7         N/A
LBJ GRASSLAND    N/A     70  64  83 SE2         N/A
GRANBURY         N/A     72  64  78 CALM        N/A
COMANCHE         N/A     70  63  78 S6          N/A
HAMBY            N/A     72  63  73 S7          N/A
IVIE RESERVOIR   N/A     70  63  78 E5          N/A
COLORADO BEND    N/A     70  64  83 S2          N/A
$$

SUPPLEMENTAL OBSERVATIONS (EAST)

CITY           SKY/WX    TMP DP  RH WIND       PRES   REMARKS
TEXARKANA        N/A    N/A N/A N/A CALM        N/A
LINDEN           N/A     66  63  88 CALM        N/A
CADDO LAKE       N/A    N/A N/A N/A CALM        N/A
HENDERSON        N/A     68  64  88 NE2         N/A
LUFKIN           N/A     70  66  88 MISG        N/A
N SABINE NF      N/A     64  63  94 MISG        N/A
$$

SUPPLEMENTAL OBSERVATIONS ARE A COLLECTION OF AUTOMATED INSTRUMENTS
THAT ARE MAINTAINED BY A VARIETY OF FEDERAL AND STATE AGENCIES.
CERTAIN ELEMENTS...SUCH AS HUMIDITY VALUES AND SUSTAINED WIND
SPEEDS...MAY BE APPROXIMATED.



USA.gov is the U.S. government's official web portal to all federal, state and local government web resources and services.